| time (UTC) | temp F | wind direction | speed knots | gust knots | rain 1hr in | rain 24hr in | rain mn in | humidity % | barometer mb |
| 20260505041555 | 57 | 169 | 3.5 | 7.0 | 0.00 | 0.00 | 0.00 | 85 | 1014.0 |
| 20260505041055 | 57 | 200 | 2.6 | 7.8 | 0.00 | 0.00 | 0.00 | 85 | 1014.1 |
| 20260505040557 | 57 | 283 | 3.5 | 8.7 | 0.00 | 0.00 | 0.00 | 85 | 1013.9 |
| 20260505040105 | 57 | 272 | 4.3 | 9.6 | 0.00 | 0.00 | 0.00 | 85 | 1013.9 |
| 20260505035555 | 57 | 261 | 4.3 | 9.6 | 0.00 | 0.00 | 0.00 | 84 | 1014.0 |
| 20260505035052 | 58 | 284 | 6.1 | 9.6 | 0.00 | 0.00 | 0.00 | 84 | 1014.1 |
| 20260505034557 | 58 | 243 | 1.7 | 8.7 | 0.00 | 0.00 | 0.00 | 84 | 1014.0 |
| 20260505034057 | 58 | 269 | 4.3 | 8.7 | 0.00 | 0.00 | 0.00 | 83 | 1013.9 |
| 20260505033556 | 58 | 268 | 4.3 | 10.4 | 0.00 | 0.00 | 0.00 | 83 | 1013.8 |
| 20260505033057 | 58 | 274 | 5.2 | 10.4 | 0.00 | 0.00 | 0.00 | 82 | 1013.8 |
| 20260505032556 | 58 | 274 | 3.5 | 8.7 | 0.00 | 0.00 | 0.00 | 82 | 1013.8 |
| 20260505032055 | 58 | 180 | 1.7 | 8.7 | 0.00 | 0.00 | 0.00 | 82 | 1013.7 |
| 20260505031555 | 58 | 286 | 2.6 | 8.7 | 0.00 | 0.00 | 0.00 | 82 | 1013.7 |
| 20260505031055 | 58 | 297 | 2.6 | 8.7 | 0.00 | 0.00 | 0.00 | 82 | 1013.5 |
| 20260505030556 | 58 | 277 | 3.5 | 9.6 | 0.00 | 0.00 | 0.00 | 81 | 1013.6 |
| 20260505030104 | 58 | 290 | 4.3 | 9.6 | 0.00 | 0.00 | 0.00 | 80 | 1013.6 |
| 20260505025556 | 58 | 297 | 3.5 | 8.7 | 0.00 | 0.00 | 0.00 | 80 | 1013.5 |
| 20260505025055 | 58 | 203 | 2.6 | 8.7 | 0.00 | 0.00 | 0.00 | 80 | 1013.5 |
| 20260505024555 | 58 | 242 | 2.6 | 10.4 | 0.00 | 0.00 | 0.00 | 80 | 1013.5 |
| 20260505024052 | 58 | 240 | 3.5 | 10.4 | 0.00 | 0.00 | 0.00 | 80 | 1013.5 |
| 20260505023556 | 58 | 271 | 5.2 | 10.4 | 0.00 | 0.00 | 0.00 | 80 | 1013.4 |
| 20260505023058 | 58 | 258 | 5.2 | 10.4 | 0.00 | 0.00 | 0.00 | 80 | 1013.3 |
| 20260505022556 | 58 | 225 | 3.5 | 10.4 | 0.00 | 0.00 | 0.00 | 80 | 1013.3 |
| 20260505022056 | 58 | 261 | 6.1 | 13.9 | 0.00 | 0.00 | 0.00 | 79 | 1013.3 |
| 20260505021559 | 58 | 278 | 7.0 | 13.9 | 0.00 | 0.00 | 0.00 | 80 | 1013.4 |
| 20260505021055 | 58 | 270 | 6.1 | 13.0 | 0.00 | 0.00 | 0.00 | 80 | 1013.3 |
| 20260505020556 | 58 | 300 | 7.8 | 13.9 | 0.00 | 0.00 | 0.00 | 79 | 1013.3 |
| 20260505020057 | 59 | 254 | 7.0 | 13.9 | 0.00 | 0.00 | 0.00 | 78 | 1013.3 |
| 20260505015556 | 59 | 291 | 7.8 | 13.9 | 0.00 | 0.00 | 0.00 | 77 | 1013.4 |
| 20260505015059 | 59 | 277 | 7.8 | 14.8 | 0.00 | 0.00 | 0.00 | 77 | 1013.3 |
| 20260505014556 | 59 | 267 | 7.0 | 14.8 | 0.00 | 0.00 | 0.00 | 78 | 1013.1 |
| 20260505014055 | 59 | 211 | 7.8 | 14.8 | 0.00 | 0.00 | 0.00 | 77 | 1013.2 |
| 20260505013555 | 59 | 215 | 6.1 | 14.8 | 0.00 | 0.00 | 0.00 | 77 | 1013.3 |
| 20260505013057 | 59 | 288 | 7.8 | 13.9 | 0.00 | 0.00 | 0.00 | 78 | 1013.3 |
| 20260505012556 | 59 | 262 | 7.8 | 13.0 | 0.00 | 0.00 | 0.00 | 79 | 1013.5 |
| 20260505012055 | 60 | 276 | 6.1 | 12.2 | 0.00 | 0.00 | 0.00 | 78 | 1013.6 |
| 20260505011557 | 60 | 331 | 4.3 | 14.8 | 0.00 | 0.00 | 0.00 | 80 | 1013.6 |
| 20260505011055 | 59 | 257 | 7.0 | 14.8 | 0.00 | 0.00 | 0.00 | 79 | 1013.6 |
| 20260505010556 | 59 | 225 | 9.6 | 14.8 | 0.00 | 0.00 | 0.00 | 79 | 1013.7 |
| 20260505010103 | 59 | 261 | 7.8 | 13.9 | 0.00 | 0.00 | 0.00 | 79 | 1013.7 |
| 20260505005556 | 60 | 277 | 7.0 | 14.8 | 0.00 | 0.00 | 0.00 | 79 | 1013.7 |
| 20260505005056 | 59 | 273 | 7.8 | 14.8 | 0.00 | 0.00 | 0.00 | 79 | 1013.6 |
| 20260505004556 | 60 | 271 | 8.7 | 14.8 | 0.00 | 0.00 | 0.00 | 77 | 1013.6 |
| 20260505004055 | 60 | 227 | 7.0 | 14.8 | 0.00 | 0.00 | 0.00 | 78 | 1013.6 |
| 20260505003559 | 61 | 242 | 7.0 | 15.6 | 0.00 | 0.00 | 0.00 | 78 | 1013.6 |
| 20260505003104 | 61 | 234 | 7.0 | 15.6 | 0.00 | 0.00 | 0.00 | 77 | 1013.7 |
| 20260505002552 | 61 | 261 | 7.0 | 12.2 | 0.00 | 0.00 | 0.00 | 78 | 1013.8 |
| 20260505002053 | 61 | 218 | 5.2 | 12.2 | 0.00 | 0.00 | 0.00 | 77 | 1013.7 |
| 20260505001558 | 60 | 287 | 5.2 | 12.2 | 0.00 | 0.00 | 0.00 | 78 | 1013.8 |
| 20260505001056 | 60 | 186 | 6.1 | 14.8 | 0.00 | 0.00 | 0.00 | 79 | 1013.7 |
| 20260505000552 | 60 | 202 | 9.6 | 15.6 | 0.00 | 0.00 | 0.00 | 78 | 1013.7 |
| 20260505000108 | 60 | 298 | 8.7 | 17.4 | 0.00 | 0.00 | 0.00 | 77 | 1013.6 |
| 20260504235556 | 61 | 284 | 9.6 | 17.4 | 0.00 | 0.00 | 0.00 | 75 | 1013.5 |
| 20260504235055 | 61 | 263 | 7.0 | 13.9 | 0.00 | 0.00 | 0.00 | 75 | 1013.5 |
| 20260504234558 | 61 | 262 | 7.8 | 14.8 | 0.00 | 0.00 | 0.00 | 74 | 1013.5 |
| 20260504234056 | 61 | 280 | 8.7 | 15.6 | 0.00 | 0.00 | 0.00 | 74 | 1013.6 |
| 20260504233556 | 61 | 280 | 10.4 | 16.5 | 0.00 | 0.00 | 0.00 | 72 | 1013.6 |
| 20260504233105 | 61 | 283 | 7.0 | 16.5 | 0.00 | 0.00 | 0.00 | 74 | 1013.5 |
| 20260504232556 | 61 | 218 | 7.0 | 16.5 | 0.00 | 0.00 | 0.00 | 77 | 1013.4 |
| 20260504232055 | 61 | 239 | 7.8 | 16.5 | 0.00 | 0.00 | 0.00 | 77 | 1013.4 |
| 20260504231555 | 61 | 277 | 8.7 | 16.5 | 0.00 | 0.00 | 0.00 | 76 | 1013.5 |
| 20260504231056 | 61 | 315 | 7.8 | 15.6 | 0.00 | 0.00 | 0.00 | 76 | 1013.6 |
| 20260504230555 | 61 | 277 | 8.7 | 18.2 | 0.00 | 0.00 | 0.00 | 78 | 1013.6 |
| 20260504230057 | 61 | 255 | 8.7 | 18.2 | 0.00 | 0.00 | 0.00 | 77 | 1013.8 |
| 20260504225557 | 61 | 276 | 10.4 | 17.4 | 0.00 | 0.00 | 0.00 | 75 | 1014.0 |
| 20260504225055 | 62 | 259 | 7.8 | 13.9 | 0.00 | 0.00 | 0.00 | 74 | 1014.0 |
| 20260504224557 | 62 | 309 | 6.1 | 13.9 | 0.00 | 0.00 | 0.00 | 76 | 1013.9 |
| 20260504224057 | 62 | 266 | 5.2 | 16.5 | 0.00 | 0.00 | 0.00 | 75 | 1013.9 |
| 20260504223555 | 62 | 200 | 7.0 | 16.5 | 0.00 | 0.00 | 0.00 | 76 | 1014.1 |
| 20260504223057 | 62 | 207 | 9.6 | 18.2 | 0.00 | 0.00 | 0.00 | 76 | 1014.1 |
| 20260504222552 | 62 | 286 | 7.8 | 18.2 | 0.00 | 0.00 | 0.00 | 76 | 1014.2 |
| 20260504222056 | 62 | 200 | 7.8 | 18.2 | 0.00 | 0.00 | 0.00 | 75 | 1014.2 |
| 20260504221556 | 62 | 268 | 7.8 | 17.4 | 0.00 | 0.00 | 0.00 | 75 | 1014.2 |
| 20260504221053 | 62 | 294 | 9.6 | 16.5 | 0.00 | 0.00 | 0.00 | 75 | 1014.3 |
| 20260504220556 | 62 | 290 | 7.8 | 15.6 | 0.00 | 0.00 | 0.00 | 75 | 1014.4 |
| 20260504220118 | 62 | 251 | 8.7 | 16.5 | 0.00 | 0.00 | 0.00 | 75 | 1014.5 |
| 20260504215556 | 62 | 219 | 8.7 | 16.5 | 0.00 | 0.00 | 0.00 | 74 | 1014.3 |
| 20260504215059 | 62 | 260 | 7.8 | 15.6 | 0.00 | 0.00 | 0.00 | 74 | 1014.4 |
| 20260504214557 | 62 | 279 | 7.8 | 18.2 | 0.00 | 0.00 | 0.00 | 75 | 1014.4 |
| 20260504214056 | 62 | 252 | 8.7 | 19.1 | 0.00 | 0.00 | 0.00 | 74 | 1014.5 |
| 20260504213555 | 62 | 280 | 9.6 | 19.1 | 0.00 | 0.00 | 0.00 | 73 | 1014.6 |
| 20260504213100 | 62 | 234 | 7.8 | 18.2 | 0.00 | 0.00 | 0.00 | 74 | 1014.7 |
| 20260504212556 | 62 | 276 | 9.6 | 18.2 | 0.00 | 0.00 | 0.00 | 73 | 1014.6 |
| 20260504212056 | 61 | 257 | 7.8 | 18.2 | 0.00 | 0.00 | 0.00 | 74 | 1014.6 |
| 20260504211557 | 61 | 266 | 9.6 | 18.2 | 0.00 | 0.00 | 0.00 | 72 | 1014.7 |
| 20260504211056 | 62 | 271 | 9.6 | 14.8 | 0.00 | 0.00 | 0.00 | 71 | 1014.7 |
| 20260504210557 | 62 | 279 | 7.8 | 13.0 | 0.00 | 0.00 | 0.00 | 71 | 1014.8 |
| 20260504210056 | 62 | 267 | 7.0 | 15.6 | 0.00 | 0.00 | 0.00 | 71 | 1014.6 |
| 20260504205555 | 62 | 273 | 7.8 | 15.6 | 0.00 | 0.00 | 0.00 | 70 | 1014.5 |
| 20260504205055 | 62 | 279 | 9.6 | 15.6 | 0.00 | 0.00 | 0.00 | 68 | 1014.5 |
| 20260504204556 | 63 | 196 | 6.1 | 13.0 | 0.00 | 0.00 | 0.00 | 68 | 1014.6 |
| 20260504204055 | 62 | 221 | 7.0 | 15.6 | 0.00 | 0.00 | 0.00 | 67 | 1014.5 |
| 20260504203556 | 63 | 182 | 7.8 | 15.6 | 0.00 | 0.00 | 0.00 | 66 | 1014.6 |
| 20260504203057 | 63 | 267 | 7.0 | 13.9 | 0.00 | 0.00 | 0.00 | 66 | 1014.5 |
| 20260504202557 | 63 | 294 | 7.8 | 14.8 | 0.00 | 0.00 | 0.00 | 66 | 1014.4 |
| 20260504202052 | 63 | 230 | 7.8 | 14.8 | 0.00 | 0.00 | 0.00 | 66 | 1014.3 |
| 20260504201556 | 63 | 267 | 7.0 | 14.8 | 0.00 | 0.00 | 0.00 | 65 | 1014.4 |
| 20260504201056 | 62 | 205 | 7.8 | 14.8 | 0.00 | 0.00 | 0.00 | 64 | 1014.3 |
| 20260504200555 | 63 | 279 | 7.8 | 14.8 | 0.00 | 0.00 | 0.00 | 64 | 1014.4 |
| 20260504200100 | 63 | 260 | 8.7 | 15.6 | 0.00 | 0.00 | 0.00 | 63 | 1014.4 |
| 20260504195555 | 63 | 224 | 7.0 | 15.6 | 0.00 | 0.00 | 0.00 | 64 | 1014.3 |
| 20260504195052 | 63 | 259 | 7.0 | 15.6 | 0.00 | 0.00 | 0.00 | 64 | 1014.3 |
| 20260504194555 | 63 | 267 | 5.2 | 15.6 | 0.00 | 0.00 | 0.00 | 63 | 1014.3 |
| 20260504194056 | 63 | 284 | 7.0 | 14.8 | 0.00 | 0.00 | 0.00 | 64 | 1014.4 |
| 20260504193556 | 63 | 236 | 4.3 | 17.4 | 0.00 | 0.00 | 0.00 | 65 | 1014.5 |
| 20260504193055 | 63 | 297 | 7.8 | 17.4 | 0.00 | 0.00 | 0.00 | 65 | 1014.5 |
| 20260504192555 | 63 | 290 | 5.2 | 13.9 | 0.00 | 0.00 | 0.00 | 65 | 1014.4 |
| 20260504192055 | 63 | 278 | 6.1 | 13.9 | 0.00 | 0.00 | 0.00 | 64 | 1014.5 |
| 20260504191557 | 63 | 228 | 5.2 | 12.2 | 0.00 | 0.00 | 0.00 | 64 | 1014.5 |
| 20260504191056 | 63 | 211 | 4.3 | 13.0 | 0.00 | 0.00 | 0.00 | 64 | 1014.5 |
| 20260504190556 | 63 | 281 | 5.2 | 13.0 | 0.00 | 0.00 | 0.00 | 65 | 1014.4 |
| 20260504190107 | 63 | 257 | 5.2 | 13.0 | 0.00 | 0.00 | 0.00 | 65 | 1014.5 |
| 20260504185555 | 62 | 227 | 6.1 | 13.9 | 0.00 | 0.00 | 0.00 | 66 | 1014.5 |
| 20260504185055 | 62 | 155 | 5.2 | 13.9 | 0.00 | 0.00 | 0.00 | 67 | 1014.7 |
| 20260504184613 | 62 | 218 | 7.0 | 13.0 | 0.00 | 0.00 | 0.00 | 66 | 1014.8 |
| 20260504184052 | 62 | 261 | 5.2 | 11.3 | 0.00 | 0.00 | 0.00 | 67 | 1014.9 |
| 20260504183555 | 62 | 221 | 4.3 | 12.2 | 0.00 | 0.00 | 0.00 | 67 | 1014.9 |
| 20260504183111 | 62 | 186 | 3.5 | 12.2 | 0.00 | 0.00 | 0.00 | 68 | 1014.7 |
| 20260504182552 | 62 | 190 | 3.5 | 13.0 | 0.00 | 0.00 | 0.00 | 69 | 1014.8 |
| 20260504182053 | 61 | 277 | 7.8 | 13.0 | 0.00 | 0.00 | 0.00 | 67 | 1014.7 |
| 20260504181552 | 62 | 207 | 5.2 | 13.9 | 0.00 | 0.00 | 0.00 | 68 | 1014.7 |
| 20260504181056 | 61 | 264 | 5.2 | 13.9 | 0.00 | 0.00 | 0.00 | 68 | 1014.8 |
| 20260504180556 | 62 | 304 | 7.0 | 13.9 | 0.00 | 0.00 | 0.00 | 67 | 1014.9 |
| 20260504180056 | 62 | 246 | 6.1 | 13.0 | 0.00 | 0.00 | 0.00 | 67 | 1014.8 |
| 20260504175556 | 62 | 240 | 5.2 | 13.0 | 0.00 | 0.00 | 0.00 | 68 | 1014.7 |
| 20260504175056 | 61 | 240 | 7.0 | 14.8 | 0.00 | 0.00 | 0.00 | 67 | 1014.8 |
| 20260504174604 | 61 | 182 | 6.1 | 14.8 | 0.00 | 0.00 | 0.00 | 69 | 1014.7 |
| 20260504174057 | 61 | 225 | 7.8 | 13.9 | 0.00 | 0.00 | 0.00 | 70 | 1014.6 |
| 20260504173556 | 61 | 140 | 6.1 | 11.3 | 0.00 | 0.00 | 0.00 | 70 | 1014.5 |
| 20260504173106 | 61 | 212 | 6.1 | 10.4 | 0.00 | 0.00 | 0.00 | 71 | 1014.5 |
| 20260504172555 | 62 | 246 | 6.1 | 10.4 | 0.00 | 0.00 | 0.00 | 71 | 1014.5 |
| 20260504172055 | 62 | 234 | 3.5 | 8.7 | 0.00 | 0.00 | 0.00 | 72 | 1014.5 |
| 20260504171558 | 62 | 171 | 4.3 | 8.7 | 0.00 | 0.00 | 0.00 | 71 | 1014.5 |
| 20260504171055 | 62 | 224 | 3.5 | 8.7 | 0.00 | 0.00 | 0.00 | 71 | 1014.4 |
| 20260504170557 | 62 | 261 | 5.2 | 8.7 | 0.00 | 0.00 | 0.00 | 70 | 1014.4 |
| 20260504151055 | 59 | 54 | 0.0 | 2.6 | 0.00 | 0.00 | 0.00 | 79 | 1013.9 |
| 20260504150557 | 58 | 0 | 0.0 | 2.6 | 0.00 | 0.00 | 0.00 | 79 | 1013.9 |
| 20260504150103 | 58 | 22 | 0.0 | 5.2 | 0.00 | 0.00 | 0.00 | 80 | 1014.0 |
| 20260504141055 | 57 | 350 | 0.0 | 0.9 | 0.00 | 0.00 | 0.00 | 83 | 1013.7 |
| 20260504140555 | 57 | 0 | 0.0 | 0.9 | 0.00 | 0.00 | 0.00 | 85 | 1013.7 |
| 20260504130557 | 57 | 47 | 0.9 | 1.7 | 0.00 | 0.00 | 0.00 | 84 | 1013.4 |
| 20260504110556 | 57 | 234 | 1.7 | 3.5 | 0.00 | 0.00 | 0.00 | 84 | 1013.2 |
| 20260504100555 | 57 | 0 | 0.0 | 0.0 | 0.00 | 0.00 | 0.00 | 83 | 1012.8 |
| 20260504081609 | 58 | 249 | 1.7 | 5.2 | 0.00 | 0.00 | 0.00 | 81 | 1014.1 |
| 20260504081054 | 58 | 236 | 1.7 | 4.3 | 0.00 | 0.00 | 0.00 | 82 | 1014.3 |
| 20260504080552 | 58 | 287 | 0.9 | 2.6 | 0.00 | 0.00 | 0.00 | 82 | 1014.2 |
| 20260504050556 | 59 | 250 | 1.7 | 6.1 | 0.00 | 0.00 | 0.00 | 81 | 1013.6 |
| 20260504045555 | 58 | 275 | 3.5 | 8.7 | 0.00 | 0.00 | 0.00 | 81 | 1013.6 |
| 20260504045055 | 59 | 297 | 2.6 | 8.7 | 0.00 | 0.00 | 0.00 | 81 | 1013.6 |
| 20260504044603 | 58 | 279 | 2.6 | 7.8 | 0.00 | 0.00 | 0.00 | 81 | 1013.6 |
| 20260504044057 | 58 | 296 | 2.6 | 8.7 | 0.00 | 0.00 | 0.00 | 81 | 1013.5 |
| 20260504043557 | 59 | 273 | 4.3 | 8.7 | 0.00 | 0.00 | 0.00 | 80 | 1013.5 |
| 20260504043055 | 59 | 271 | 2.6 | 6.1 | 0.00 | 0.00 | 0.00 | 81 | 1013.6 |